カタログに戻る

DMSP 5D-2 F11 DEB

運用中PO
NORAD 35534·DEBRIS·🇺🇸 United States

打ち上げ Nov 28, 1991 から Vandenberg Space Force Base

Loading…

次のパス (今後24時間)

TLE

最新Source: Space-Track

元期: Sep 13, 2026, 12:55 UTC

1 35534U 91082CQ  26256.53845287  .00030267  00000-0  29669-2 0  9995
2 35534  98.8066   6.1454 0018687  79.4435 341.9925 14.92053201772939

AllMySatでDMSP 5D-2 F11 DEBをリアルタイム追跡

Download on the App Store